Location: ??????
(41.3747°N, 22.5491°E)
Time: 15:55:19
(UTC+00:00)

Cosmos 1470 Rocket - Pass Details

Date: 01 December 2020
Orbit: 604 x 633 km, 82.5° (Epoch: 21 January)

Event Time Altitude Azimuth Distance (km) Brightness Sun altitude
Rises 15:30:45 0° 3° (N) 2,870 6.7 -5.8°
Reaches altitude 10° 15:33:16 10° 16° (NNE) 1,960 5.8 -6.2°
Maximum altitude 15:36:57 27° 75° (ENE) 1,171 4.4 -6.9°
Drops below altitude 10° 15:40:38 10° 134° (SE) 1,948 5.9 -7.5°
Sets 15:43:07 0° 146° (SE) 2,849 6.8 -7.9°
